GW1035 Weather Reports


time (UTC)temp
C
wind
direction
speed
KPH
gust
KPH
rain 1hr
cm
rain 24hr
cm
rain mn
cm
humidity
%
barometer
mb
20260507091605 7 358 0.0 4.8 0.00 1.02 0.15 86 1006.1
20260507091038 8 340 1.6 8.0 0.00 1.02 0.15 86 1005.9
20260507090538 8 0 1.6 8.0 0.00 1.02 0.15 86 1006.1
20260507090048 8 44 3.2 8.0 0.00 1.02 0.15 86 1006.4
20260507085539 8 11 1.6 8.0 0.00 1.02 0.15 86 1006.6
20260507085038 8 8 1.6 11.3 0.00 1.02 0.15 86 1006.4
20260507084553 8 302 1.6 11.3 0.00 1.02 0.15 86 1006.5
20260507084037 8 44 1.6 11.3 0.00 1.02 0.15 86 1006.5
20260507083538 8 340 1.6 9.7 0.00 1.02 0.15 87 1006.9
20260507083047 8 351 3.2 9.7 0.00 1.02 0.15 87 1006.7
20260507082538 8 347 1.6 11.3 0.00 1.02 0.15 88 1006.6
20260507082037 8 352 3.2 11.3 0.00 1.02 0.15 89 1006.2
20260507081556 8 31 3.2 11.3 0.00 1.02 0.15 90 1005.8
20260507081037 8 30 0.0 4.8 0.00 1.02 0.15 90 1005.9
20260507080540 8 356 1.6 4.8 0.00 1.02 0.15 90 1006.2
20260507080051 8 329 1.6 4.8 0.00 1.02 0.15 90 1006.5
20260507075538 8 0 0.0 4.8 0.00 1.02 0.15 90 1006.4
20260507075042 8 4 0.0 6.4 0.00 1.02 0.15 90 1006.1
20260507074556 8 336 1.6 6.4 0.00 1.02 0.15 90 1006.1
20260507074041 8 301 1.6 8.0 0.00 1.02 0.15 91 1006.1
20260507073538 8 3 3.2 8.0 0.00 1.02 0.15 91 1005.8
20260507073053 8 345 3.2 6.4 0.00 1.02 0.15 91 1006.1
20260507072538 8 17 1.6 6.4 0.00 1.02 0.15 92 1005.9
20260507072038 8 13 1.6 4.8 0.00 1.02 0.15 92 1005.9
20260507071552 8 27 1.6 4.8 0.00 1.02 0.15 92 1005.8
20260507071038 8 7 0.0 3.2 0.00 1.02 0.15 92 1005.8
20260507070538 8 2 1.6 3.2 0.00 1.02 0.15 92 1005.8
20260507070059 9 293 0.0 4.8 0.00 1.02 0.15 93 1005.9
20260507065540 9 302 0.0 4.8 0.00 1.02 0.15 93 1005.7
20260507065037 9 298 0.0 1.6 0.00 1.02 0.15 93 1005.7
20260507064552 9 294 0.0 1.6 0.00 1.02 0.15 93 1005.7
20260507064040 9 302 0.0 1.6 0.00 1.02 0.15 93 1005.7
20260507063539 9 0 0.0 1.6 0.00 1.02 0.15 93 1005.5
20260507063053 9 302 0.0 1.6 0.00 1.02 0.15 93 1005.5
20260507062538 9 0 0.0 1.6 0.00 1.02 0.15 93 1005.4
20260507062038 9 0 0.0 1.6 0.00 1.02 0.15 93 1005.5
20260507061552 9 330 0.0 1.6 0.00 1.02 0.15 93 1005.5
20260507061041 9 0 0.0 1.6 0.00 1.02 0.15 92 1005.5
20260507060538 9 0 0.0 1.6 0.00 1.02 0.15 92 1005.1
20260507060100 9 0 0.0 6.4 0.00 1.02 0.15 92 1005.3
20260507055538 9 12 1.6 6.4 0.00 1.02 0.15 92 1005.3
20260507055039 9 18 0.0 4.8 0.00 1.02 0.15 92 1005.4
20260507054549 10 290 1.6 3.2 0.00 1.02 0.15 92 1005.3
20260507054040 10 20 0.0 6.4 0.00 1.02 0.15 92 1005.5
20260507053538 10 5 1.6 6.4 0.03 1.02 0.15 92 1005.3
20260507053053 10 49 0.0 6.4 0.03 1.02 0.15 92 1005.0
20260507052544 10 27 1.6 6.4 0.03 1.02 0.15 93 1005.4
20260507052038 10 26 1.6 6.4 0.03 1.02 0.15 93 1005.4
20260507051552 10 353 1.6 4.8 0.03 1.02 0.15 93 1005.4
20260507051037 10 0 1.6 11.3 0.08 1.02 0.15 93 1005.1
20260507050537 10 27 1.6 12.9 0.10 1.02 0.15 93 1005.0
20260507050052 10 358 3.2 12.9 0.15 1.02 0.15 93 1005.0
20260507045540 10 64 4.8 24.1 0.15 1.02 0.15 93 1005.1
20260507045037 11 328 3.2 24.1 0.15 1.02 0.15 93 1004.9
20260507044555 11 2 4.8 24.1 0.15 1.02 0.15 93 1004.8
20260507044037 12 37 4.8 12.9 0.15 1.02 0.15 94 1004.6
20260507043538 12 0 0.0 4.8 0.13 0.99 0.13 96 1004.4
20260507043101 12 11 0.0 4.8 0.13 0.99 0.13 96 1004.5
20260507042536 12 0 0.0 1.6 0.13 0.99 0.13 96 1004.5
20260507042044 12 0 0.0 1.6 0.13 0.99 0.13 96 1004.4
20260507041556 12 263 0.0 1.6 0.13 0.99 0.13 96 1004.4
20260507041039 12 0 0.0 1.6 0.08 0.94 0.08 95 1004.4
20260507040539 12 0 0.0 1.6 0.05 0.91 0.05 95 1004.3
20260507040047 12 0 0.0 1.6 0.00 0.86 0.00 95 1004.5
20260507035539 12 249 0.0 1.6 0.00 0.86 0.86 95 1004.5
20260507035040 12 249 0.0 1.6 0.00 0.86 0.86 96 1004.4
20260507034554 12 173 0.0 1.6 0.00 0.86 0.86 95 1004.3
20260507034038 12 173 0.0 1.6 0.00 0.86 0.86 95 1004.2
20260507033539 12 173 0.0 0.0 0.00 0.86 0.86 95 1004.0
20260507033051 12 0 0.0 0.0 0.00 0.86 0.86 96 1003.9
20260507032539 12 173 0.0 0.0 0.00 0.86 0.86 96 1003.9
20260507032036 12 0 0.0 1.6 0.00 0.86 0.86 95 1003.8
20260507031550 12 0 0.0 1.6 0.00 0.86 0.86 95 1003.8
20260507031039 12 170 0.0 1.6 0.00 0.86 0.86 96 1003.9
20260507030539 12 0 0.0 0.0 0.00 0.86 0.86 95 1003.8
20260507030047 11 156 0.0 0.0 0.00 0.86 0.86 95 1004.0
20260507025538 11 0 0.0 0.0 0.00 0.86 0.86 95 1004.1
20260507025042 11 0 0.0 0.0 0.00 0.86 0.86 95 1004.0
20260507024551 11 0 0.0 0.0 0.00 0.86 0.86 95 1003.9
20260507024040 11 0 0.0 1.6 0.03 0.86 0.86 95 1004.0
20260507023539 11 0 0.0 1.6 0.03 0.86 0.86 95 1004.0
20260507023104 11 197 0.0 1.6 0.03 0.86 0.86 95 1004.2
20260507022539 11 197 0.0 3.2 0.03 0.86 0.86 95 1004.3
20260507022040 11 0 0.0 3.2 0.03 0.86 0.86 95 1004.3
20260507021548 11 220 0.0 1.6 0.03 0.86 0.86 95 1004.3
20260507021039 11 221 0.0 1.6 0.03 0.86 0.86 95 1004.4
20260507020539 11 160 0.0 1.6 0.05 0.86 0.86 95 1004.4
20260507020059 11 200 0.0 3.2 0.05 0.86 0.86 95 1004.4
20260507015538 11 199 0.0 3.2 0.05 0.86 0.86 95 1004.5
20260507015040 11 208 0.0 3.2 0.05 0.86 0.86 95 1004.5
20260507014547 11 191 1.6 3.2 0.05 0.86 0.86 95 1004.5
20260507014039 11 199 0.0 3.2 0.03 0.84 0.84 95 1004.6
20260507013538 11 201 1.6 3.2 0.03 0.84 0.84 95 1004.6
20260507013054 11 206 1.6 3.2 0.03 0.84 0.84 95 1004.7
20260507012540 11 173 1.6 3.2 0.03 0.84 0.84 95 1004.7
20260507012038 11 212 1.6 3.2 0.05 0.84 0.84 95 1004.7
20260507011551 11 218 1.6 3.2 0.05 0.84 0.84 95 1004.7
20260507011038 11 217 1.6 3.2 0.05 0.84 0.84 95 1004.7
20260507010537 11 210 1.6 3.2 0.03 0.81 0.81 95 1004.8
20260507010047 11 172 0.0 3.2 0.03 0.81 0.81 94 1004.9
20260507005540 11 174 1.6 3.2 0.03 0.81 0.81 94 1004.9
20260507005039 11 169 1.6 3.2 0.03 0.81 0.81 94 1004.9
20260507004550 11 206 1.6 3.2 0.03 0.81 0.81 94 1004.8
20260507004038 11 175 1.6 4.8 0.03 0.81 0.81 94 1004.8
20260507003538 11 217 1.6 6.4 0.03 0.81 0.81 94 1004.9
20260507003056 11 177 1.6 6.4 0.03 0.81 0.81 94 1004.9
20260507002540 11 211 3.2 6.4 0.00 0.79 0.79 94 1004.9
20260507002038 11 192 1.6 4.8 0.00 0.79 0.79 94 1004.9
20260507001608 11 208 1.6 4.8 0.00 0.79 0.79 94 1004.9
20260507001037 11 214 1.6 4.8 0.00 0.79 0.79 94 1004.9
20260507000541 11 219 1.6 4.8 0.00 0.79 0.79 94 1004.9
20260507000047 11 207 1.6 4.8 0.00 0.79 0.79 94 1004.9
20260506235538 12 167 1.6 4.8 0.00 0.79 0.79 94 1005.0
20260506235037 12 156 1.6 4.8 0.00 0.79 0.79 94 1004.9
20260506234552 11 216 3.2 6.4 0.00 0.79 0.79 94 1004.8
20260506234038 12 220 1.6 6.4 0.00 0.79 0.79 94 1004.9
20260506233538 12 168 3.2 6.4 0.00 0.79 0.79 94 1005.0
20260506233054 12 164 1.6 6.4 0.00 0.79 0.79 94 1004.9
20260506232537 12 139 3.2 6.4 0.00 0.79 0.79 94 1005.0
20260506232039 12 198 1.6 6.4 0.00 0.79 0.79 94 1005.1
20260506231545 12 216 3.2 6.4 0.00 0.79 0.79 94 1005.1
20260506231037 12 177 3.2 4.8 0.00 0.79 0.79 94 1005.1
20260506230538 12 167 3.2 6.4 0.00 0.79 0.79 94 1005.0
20260506230136 12 188 3.2 6.4 0.03 0.79 0.79 94 1005.0
20260506225538 12 185 3.2 6.4 0.03 0.79 0.79 94 1005.0
20260506225038 12 250 1.6 6.4 0.03 0.79 0.79 94 1005.2
20260506224551 12 207 1.6 6.4 0.03 0.79 0.79 94 1005.2
20260506224037 12 215 1.6 6.4 0.03 0.79 0.79 94 1005.2
20260506223539 12 211 1.6 6.4 0.03 0.79 0.79 94 1005.2
20260506223051 12 218 1.6 4.8 0.03 0.79 0.79 94 1005.3
20260506222539 12 198 3.2 4.8 0.05 0.79 0.79 94 1005.3
20260506222039 12 212 3.2 4.8 0.05 0.79 0.79 94 1005.4
20260506221605 12 161 1.6 4.8 0.08 0.79 0.79 94 1005.5
20260506221037 12 187 1.6 4.8 0.08 0.79 0.79 94 1005.4
20260506220538 12 218 1.6 6.4 0.13 0.79 0.79 94 1005.5
20260506220048 12 197 3.2 6.4 0.10 0.76 0.76 94 1005.6
20260506215542 12 176 3.2 6.4 0.20 0.76 0.76 94 1005.7
20260506215038 12 220 3.2 4.8 0.25 0.76 0.76 93 1005.5
20260506214554 12 185 3.2 4.8 0.30 0.76 0.76 93 1005.7
20260506214038 12 174 3.2 6.4 0.30 0.76 0.76 93 1005.6
20260506213540 12 211 3.2 8.0 0.33 0.76 0.76 93 1005.6
20260506213051 12 179 3.2 9.7 0.33 0.76 0.76 93 1005.7
20260506212538 12 179 3.2 9.7 0.30 0.74 0.74 93 1005.8
20260506212039 12 187 3.2 6.4 0.33 0.74 0.74 93 1005.8
20260506211547 12 210 3.2 8.0 0.30 0.71 0.71 93 1005.8
20260506211039 12 213 1.6 8.0 0.30 0.71 0.71 93 1005.9
20260506210539 12 191 3.2 6.4 0.25 0.66 0.66 93 1006.1
20260506210057 12 219 3.2 6.4 0.23 0.64 0.64 93 1006.0
20260506205537 12 203 1.6 6.4 0.18 0.56 0.56 92 1006.2
20260506205037 12 169 1.6 4.8 0.13 0.51 0.51 92 1006.1
20260506204555 12 198 1.6 4.8 0.08 0.46 0.46 92 1006.1
20260506204038 13 193 3.2 4.8 0.10 0.46 0.46 92 1006.1
20260506203538 13 187 1.6 4.8 0.13 0.43 0.43 92 1006.1
20260506203102 13 161 1.6 4.8 0.15 0.43 0.43 92 1006.0
20260506202538 13 205 1.6 3.2 0.18 0.43 0.43 92 1006.1
20260506202038 13 153 1.6 6.4 0.18 0.41 0.41 92 1005.8
20260506201554 13 179 3.2 6.4 0.23 0.41 0.41 92 1006.0
20260506201037 13 207 3.2 6.4 0.23 0.41 0.41 92 1006.2
20260506200544 13 193 3.2 4.8 0.25 0.41 0.41 92 1006.4
20260506200054 13 155 1.6 3.2 0.28 0.41 0.41 92 1006.1
20260506195538 13 170 0.0 3.2 0.30 0.38 0.38 92 1006.0
20260506195038 13 179 1.6 4.8 0.33 0.38 0.38 92 1006.2
20260506194555 13 146 1.6 4.8 0.36 0.38 0.38 92 1006.4
20260506194038 13 186 1.6 3.2 0.33 0.36 0.36 91 1006.7
20260506193537 13 190 1.6 4.8 0.30 0.30 0.30 91 1006.8
20260506193054 13 213 1.6 4.8 0.28 0.28 0.28 91 1006.8
20260506192538 13 221 1.6 4.8 0.25 0.25 0.25 91 1006.7
20260506192038 13 205 0.0 4.8 0.20 0.20 0.20 91 1006.6
20260506191553 13 159 3.2 4.8 0.18 0.18 0.18 91 1006.7
20260506191039 13 174 1.6 4.8 0.18 0.18 0.18 90 1006.8
20260506190539 13 252 3.2 6.4 0.15 0.15 0.15 90 1006.9
20260506190053 13 213 1.6 6.4 0.13 0.13 0.13 89 1006.8
20260506185542 13 219 1.6 4.8 0.08 0.08 0.08 89 1006.9
20260506185038 13 180 1.6 3.2 0.05 0.05 0.05 88 1006.9
20260506184554 13 170 1.6 3.2 0.03 0.03 0.03 87 1006.7
20260506184040 13 198 1.6 6.4 0.00 0.00 0.00 86 1006.6
20260506183540 13 154 1.6 6.4 0.00 0.00 0.00 84 1006.6
20260506183100 13 167 3.2 6.4 0.00 0.00 0.00 83 1006.7
20260506182537 14 197 3.2 8.0 0.00 0.00 0.00 81 1006.6
20260506182042 14 174 3.2 8.0 0.00 0.00 0.00 80 1006.6
20260506181604 15 201 3.2 6.4 0.00 0.00 0.00 78 1006.6
20260506181039 15 229 1.6 6.4 0.00 0.00 0.00 78 1006.6
20260506180543 15 204 3.2 8.0 0.00 0.00 0.00 77 1006.7
20260506180050 15 193 3.2 8.0 0.00 0.00 0.00 76 1006.5
20260506175538 15 210 4.8 9.7 0.00 0.00 0.00 76 1006.7
20260506175042 16 181 3.2 9.7 0.00 0.00 0.00 76 1006.6
20260506174551 16 203 3.2 9.7 0.00 0.00 0.00 75 1006.6
20260506174038 16 203 4.8 8.0 0.00 0.00 0.00 76 1006.6
20260506173539 16 201 3.2 8.0 0.00 0.00 0.00 76 1006.8
20260506173051 16 156 3.2 6.4 0.00 0.00 0.00 75 1006.7
20260506172538 16 210 1.6 6.4 0.00 0.00 0.00 76 1007.0
20260506172038 16 200 3.2 6.4 0.00 0.00 0.00 75 1006.9
20260506171550 16 145 3.2 6.4 0.00 0.00 0.00 76 1007.0
20260506171038 16 170 1.6 4.8 0.00 0.00 0.00 76 1007.1
20260506170541 16 167 1.6 4.8 0.00 0.00 0.00 76 1007.3
20260506165541 16 166 1.6 4.8 0.00 0.00 0.00 75 1007.6
20260506165039 16 160 1.6 4.8 0.00 0.00 0.00 75 1007.6
20260506164555 17 145 1.6 4.8 0.00 0.00 0.00 75 1007.5
20260506164038 17 151 1.6 3.2 0.00 0.00 0.00 75 1007.6
20260506163538 16 149 0.0 3.2 0.00 0.00 0.00 76 1007.8
20260506163104 16 172 1.6 4.8 0.00 0.00 0.00 75 1008.0
20260506162541 17 158 1.6 4.8 0.00 0.00 0.00 75 1008.0
20260506162041 16 171 1.6 4.8 0.00 0.00 0.00 75 1008.1
20260506161547 16 163 1.6 4.8 0.00 0.00 0.00 76 1008.3
20260506161038 16 168 1.6 3.2 0.00 0.00 0.00 76 1008.5
20260506160540 16 207 0.0 3.2 0.00 0.00 0.00 76 1008.5
20260506160059 16 214 1.6 4.8 0.00 0.00 0.00 77 1008.6
20260506155538 16 164 1.6 4.8 0.00 0.00 0.00 76 1008.7
20260506155038 16 177 1.6 4.8 0.00 0.00 0.00 77 1008.8
20260506154552 16 171 1.6 4.8 0.00 0.00 0.00 77 1008.8
20260506154038 16 195 0.0 4.8 0.00 0.00 0.00 77 1008.8
20260506153544 16 220 1.6 4.8 0.00 0.00 0.00 77 1008.7
20260506153045 16 153 1.6 4.8 0.00 0.00 0.00 77 1008.7
20260506152538 16 220 1.6 3.2 0.00 0.00 0.00 77 1008.6
20260506152038 16 198 0.0 3.2 0.00 0.00 0.00 77 1008.8
20260506151557 16 176 1.6 3.2 0.00 0.00 0.00 77 1008.9
20260506151038 16 167 0.0 3.2 0.00 0.00 0.00 78 1008.7
20260506150544 16 171 1.6 4.8 0.00 0.00 0.00 78 1008.6
20260506150100 16 158 1.6 4.8 0.00 0.00 0.00 78 1008.7
20260506145539 16 166 1.6 4.8 0.00 0.00 0.00 78 1008.8
20260506145039 16 217 1.6 4.8 0.00 0.00 0.00 78 1008.7
20260506144553 16 181 1.6 4.8 0.00 0.00 0.00 77 1008.7
20260506144036 16 158 1.6 4.8 0.00 0.00 0.00 78 1008.5
20260506143536 16 145 1.6 6.4 0.00 0.00 0.00 77 1008.6
20260506143050 16 163 0.0 6.4 0.00 0.00 0.00 77 1008.5
20260506142540 16 188 1.6 6.4 0.00 0.00 0.00 77 1008.5
20260506142040 16 148 1.6 3.2 0.00 0.00 0.00 77 1008.5
20260506141548 16 226 0.0 1.6 0.00 0.00 0.00 77 1008.5
20260506141039 16 150 0.0 3.2 0.00 0.00 0.00 77 1008.7
20260506140538 16 152 0.0 3.2 0.00 0.00 0.00 77 1008.8
20260506140049 15 135 0.0 3.2 0.00 0.00 0.00 78 1009.0
20260506135540 15 113 0.0 3.2 0.00 0.00 0.00 77 1009.0
20260506135038 15 131 1.6 3.2 0.00 0.00 0.00 77 1009.0
20260506134546 15 184 1.6 4.8 0.00 0.00 0.00 78 1009.0
20260506134042 16 158 1.6 4.8 0.00 0.00 0.00 77 1008.9
20260506133539 15 162 0.0 1.6 0.00 0.00 0.00 78 1008.9
20260506133059 15 152 0.0 1.6 0.00 0.00 0.00 78 1009.0
20260506132539 15 174 0.0 1.6 0.00 0.00 0.00 78 1009.0
20260506132036 15 146 0.0 1.6 0.00 0.00 0.00 77 1008.8
20260506131553 15 196 0.0 1.6 0.00 0.00 0.00 78 1008.9
20260506131039 15 146 0.0 1.6 0.00 0.00 0.00 78 1008.8
20260506130537 15 226 0.0 1.6 0.00 0.00 0.00 78 1008.9
20260506130047 15 202 0.0 3.2 0.00 0.00 0.00 78 1008.9
20260506125537 15 212 1.6 3.2 0.00 0.00 0.00 78 1008.9
20260506125036 15 181 1.6 3.2 0.00 0.00 0.00 77 1008.9
20260506124552 15 146 0.0 3.2 0.00 0.00 0.00 78 1008.9
20260506124036 15 149 0.0 1.6 0.00 0.00 0.00 79 1008.9
20260506123542 15 179 0.0 1.6 0.00 0.00 0.00 80 1008.9
20260506123049 15 0 0.0 3.2 0.00 0.00 0.00 80 1009.0
20260506122540 14 148 0.0 3.2 0.00 0.00 0.00 80 1009.0
20260506122040 14 150 1.6 3.2 0.00 0.00 0.00 80 1009.0
20260506121554 14 0 0.0 1.6 0.00 0.00 0.00 81 1009.1
20260506121040 13 188 0.0 1.6 0.00 0.00 0.00 82 1009.1
20260506120540 13 0 0.0 1.6 0.00 0.00 0.00 83 1009.1
20260506120059 13 176 0.0 1.6 0.00 0.00 0.00 82 1009.2
20260506115539 13 0 0.0 1.6 0.00 0.00 0.00 82 1009.1
20260506115040 13 168 0.0 1.6 0.00 0.00 0.00 83 1009.2
20260506114551 13 160 0.0 1.6 0.00 0.00 0.00 83 1009.2
20260506114041 13 0 0.0 1.6 0.00 0.00 0.00 83 1009.4
20260506113538 12 0 0.0 1.6 0.00 0.00 0.00 83 1009.3
20260506113050 12 0 0.0 1.6 0.00 0.00 0.00 84 1009.5
20260506112540 12 210 0.0 0.0 0.00 0.00 0.00 84 1009.5
20260506112038 12 0 0.0 0.0 0.00 0.00 0.00 85 1009.3
20260506111551 12 0 0.0 0.0 0.00 0.00 0.00 85 1009.3
20260506111038 12 0 0.0 0.0 0.00 0.00 0.00 85 1009.4
20260506110538 12 0 0.0 0.0 0.00 0.00 0.00 86 1009.7
20260506110100 11 0 0.0 0.0 0.00 0.00 0.00 86 1009.5
20260506105538 11 0 0.0 0.0 0.00 0.00 0.00 86 1009.5
20260506105042 11 0 0.0 0.0 0.00 0.00 0.00 86 1009.5
20260506104558 11 0 0.0 0.0 0.00 0.00 0.00 87 1009.6
20260506104039 11 0 0.0 0.0 0.00 0.00 0.00 87 1009.4
20260506103537 11 0 0.0 0.0 0.00 0.00 0.00 87 1009.5
20260506103052 11 0 0.0 0.0 0.00 0.00 0.00 87 1009.3
20260506102539 11 0 0.0 0.0 0.00 0.00 0.00 87 1009.0
20260506102042 11 0 0.0 0.0 0.00 0.00 0.00 87 1009.0
20260506101554 11 198 0.0 0.0 0.00 0.00 0.00 87 1009.2
20260506101038 11 0 0.0 0.0 0.00 0.00 0.00 87 1009.3
20260506100538 11 0 0.0 1.6 0.00 0.00 0.00 87 1009.1
20260506095538 10 207 0.0 1.6 0.00 0.00 0.00 88 1009.0
20260506095039 10 0 0.0 0.0 0.00 0.00 0.00 87 1009.2
20260506094556 10 0 0.0 1.6 0.00 0.00 0.00 87 1009.3
20260506094040 10 0 0.0 1.6 0.00 0.00 0.00 87 1008.9
20260506093538 11 0 0.0 1.6 0.00 0.00 0.00 86 1008.9
20260506093047 11 0 0.0 1.6 0.00 0.00 0.00 86 1008.9
20260506092539 11 0 0.0 1.6 0.00 0.00 0.00 86 1009.1
20260506092038 11 207 0.0 1.6 0.00 0.00 0.00 85 1009.0